Regional Weather Roundup
Issued by NWS

Home | Current Version | Previous Version | Text Only | Print | Product List | Glossary Off
Versions: 1 2 3 4 5 6 7 8 9 10 11 12 13 14 15 16 17 18 19 20 21 22 23 24 25 26 27 28 29 30 31 32 33 34 35 36 37 38 39 40 41 42 43 44 45 46 47 48 49 50

000
ASUS45 KCYS 240610
RWRWY

WYOMING REGIONAL WEATHER ROUNDUP
NATIONAL WEATHER SERVICE CHEYENNE WY
1100 PM MST FRI FEB 23 2018

NOTE:  "FAIR" INDICATES FEW OR NO CLOUDS BELOW 12,000 FEET
WITH NO SIGNIFICANT WEATHER AND/OR OBSTRUCTIONS TO VISIBILITY.

WYZ001-240700-
YELLOWSTONE NATIONAL PARK

CITY           SKY/WX    TMP DP  RH WIND       PRES   REMARKS
LK YELLOWSTONE   N/A     -9 -13  83 CALM      29.87F
6HR MIN TEMP: -10; 6HR MAX TEMP:  14;

W YELLOWSTONE  NOT AVBL

$$
WYZ002>013-054>058-071-098>099-240700-
NORTHERN WYOMING

CITY           SKY/WX    TMP DP  RH WIND       PRES   REMARKS
JACKSON        FAIR       8   0  69 S14       29.96S WCI  -8
CODY           FAIR      20   0  41 CALM      29.84F
GREYBULL       FAIR      -9 -11  91 W3        29.93F
6HR MIN TEMP:  -9; 6HR MAX TEMP:  15;

WORLAND        FAIR      -2  -5  87 CALM      29.90F
6HR MIN TEMP:  -3; 6HR MAX TEMP:  19;

SHERIDAN       FAIR      -2  -7  79 CALM      29.85F
6HR MIN TEMP:  -6; 6HR MAX TEMP:  11;

BUFFALO        FAIR      18  -1  43 W6        29.80F WCI  10
6HR MIN TEMP:  12; 6HR MAX TEMP:  20;

GILLETTE       MOCLDY    17  10  74 S9        29.86F WCI   6
6HR MIN TEMP:  14; 6HR MAX TEMP:  19;

HULETT         MOCLDY    21  10  63 W6        29.86F WCI  14
NEWCASTLE      MOCLDY    19   9  63 SE14      29.93F WCI   6

$$
WYZ014>020-022>026-101>103-240700-
CENTRAL WYOMING

CITY           SKY/WX    TMP DP  RH WIND       PRES   REMARKS
BIG PINEY      FAIR       0  -9  65 N15       29.93S WCI -19
6HR MIN TEMP:  -4; 6HR MAX TEMP:  22;

PINEDALE       FAIR      -6  -9  84 NW9       29.92F WCI -22
DUBOIS           N/A    N/A N/A N/A MISG        N/A
LANDER         FAIR      10   3  73 W12       29.87F WCI  -5
6HR MIN TEMP:   7; 6HR MAX TEMP:  18;

RIVERTON       FAIR       1  -5  75 NW6       29.88F WCI -10
6HR MIN TEMP:   0; 6HR MAX TEMP:  15;

CASPER         FLURRIES  17  15  92 W7        29.85F WCI   8
6HR MIN TEMP:  15; 6HR MAX TEMP:  17; 6HR PCP:  0.06;

DOUGLAS        FAIR      16  13  88 W6        29.87F WCI   7
6HR MIN TEMP:  10; 6HR MAX TEMP:  20;


$$
WYZ021-027>030-104>119-240700-
SOUTHERN WYOMING

CITY           SKY/WX    TMP DP  RH WIND       PRES   REMARKS
EVANSTON       FAIR       3   1  91 SW10      30.00R WCI -12
6HR MIN TEMP:   2; 6HR MAX TEMP:  15; 6HR PCP: TRACE;

ROCK SPRINGS   MOCLDY    13   7  77 W24       29.92R WCI  -7
6HR MIN TEMP:  12; 6HR MAX TEMP:  14; 6HR PCP: TRACE;

DIXON          LGT SNOW  16  12  85 W3        29.95S
RAWLINS        CLOUDY    12   8  84 SW6       29.86S FOG     WCI   3
6HR MIN TEMP:   7; 6HR MAX TEMP:  21;

SARATOGA       CLOUDY    18  14  86 W10       29.87R WCI   6
LARAMIE        CLOUDY    18  17  96 S9        29.79F WCI   7
6HR MIN TEMP:  15; 6HR MAX TEMP:  20; 6HR PCP: TRACE;

CHEYENNE       CLOUDY    21  21 100 SW8       29.85F WCI  11
6HR MIN TEMP:  20; 6HR MAX TEMP:  23; 6HR PCP:  0.07;

TORRINGTON     LGT SNOW  20  18  92 E7        29.92F FOG     WCI  11
6HR MIN TEMP:  20; 6HR MAX TEMP:  26; 6HR PCP: TRACE;

PINE BLUFFS    MOCLDY    21  18  86 SE8       29.89S WCI  12

$$



USA.gov is the U.S. government's official web portal to all federal, state and local government web resources and services.